Regional Weather Roundup
Issued by NWS Sioux Falls, SD

Home | Current Version | Previous Version | Text Only | Print | Product List | Glossary On
Versions: 1 2 3 4 5 6 7 8 9 10 11 12 13 14 15 16 17 18 19 20 21 22 23 24 25 26 27 28 29 30 31 32 33 34 35 36 37 38 39 40 41 42 43 44 45 46 47 48 49 50
000
ASUS43 KFSD 250302
RWRFSD

WEATHER ROUNDUP FOR SE SOUTH DAKOTA/SW MINNESOTA/NW IOWA
NATIONAL WEATHER SERVICE SIOUX FALLS SD
1000 PM CDT WED AUG 24 2016

NOTE: "FAIR" INDICATES FEW OR NO CLOUDS BELOW 12,000 FEET WITH NO
SIGNIFICANT WEATHER AND OR OBSTRUCTIONS TO VISIBILITY.


SDZ038>040-050-052>070-250400-
SOUTHEAST SOUTH DAKOTA

CITY           SKY/WX    TMP DP  RH WIND       PRES   REMARKS
CHAMBERLAIN    PTCLDY    64  56  75 SW7       30.10R
HURON          CLOUDY    65  54  67 SW8       30.05R
MADISON        FAIR      63  63 100 SW6       30.08R
MITCHELL       CLOUDY    67  55  65 SW7       30.07R
SIOUX FALLS    PTCLDY    66  59  78 SW3       30.08R
WINNER         FAIR      66  53  63 SW9       30.12R
YANKTON        CLEAR     63  55  77 CALM      30.08R
$$

MNZ071-072-080-081-089-090-097-098-250400-
SOUTHWEST MINNESOTA

CITY           SKY/WX    TMP DP  RH WIND       PRES   REMARKS
FAIRMONT       PTCLDY    66  61  84 W5        30.04R
JACKSON        PTCLDY    63  59  88 W3        30.06R
LUVERNE        PTCLDY    61  55  82 W7        30.08S
MARSHALL       MOCLDY    63  58  83 SW8       30.05R
MONTEVIDEO     PTCLDY    63  54  72 W6        30.03R
REDWOOD FALLS  CLOUDY    66  59  78 SW7       30.03R
TRACY          PTCLDY    64  60  86 SW7       30.06R
WINDOM         CLOUDY    64  59  82 W6        30.05R
WORTHINGTON    CLOUDY    63  59  87 W9        30.07R
$$

IAZ001>003-012>014-020>022-031-032-NEZ013-014-SDZ071-250400-
NORTHWEST IOWA

CITY           SKY/WX    TMP DP  RH WIND       PRES   REMARKS
CHEROKEE       CLOUDY    67  64  91 W3        30.07R
DENISON        CLOUDY    66  64  94 NW8       30.05R
ESTHERVILLE    CLOUDY    63  62  97 W6        30.05R
LE MARS        CLOUDY    64  61  88 CALM      30.09R
ORANGE CITY    CLOUDY    63  61  94 NW7       30.08R
SHELDON        CLOUDY    63  61  94 W7        30.06R
SIOUX CITY     PTCLDY    64  59  83 NW6       30.07R
SPENCER        CLOUDY    63  61  93 W5        30.07R
STORM LAKE     CLOUDY    66  64  94 NW7G13    30.07R
$$

ABBREVIATIONS USED IN REMARKS
   TC - TEMPERATURE IN CELSIUS
  WCI - WIND CHILL INDEX
   HX - HEAT INDEX
  VSB - VISIBILITY





USA.gov is the U.S. government's official web portal to all federal, state and local government web resources and services.